Miscellaneous Local Product
Issued by NWS North Platte, NE

Home | Current Version | Previous Version | Text Only | Print | Product List | Glossary On
Versions: 1 2 3 4 5 6 7 8 9 10 11 12 13 14 15 16 17 18 19 20 21 22 23 24 25 26 27 28 29 30 31 32 33 34 35 36 37 38 39 40 41 42 43 44 45 46 47 48 49 50
592
AXUS43 KLBF 272310
MISLBF


WESTERN AND NORTH CENTRAL NEBRASKA HOURLY WEATHER ROUNDUP
NATIONAL WEATHER SERVICE NORTH PLATTE NE
600 PM CDT MON MAR 27 2017

NOTE: "FAIR" INDICATES FEW OR NO CLOUDS BELOW 12,000 FEET WITH NO
SIGNIFICANT WEATHER AND/OR OBSTRUCTIONS TO VISIBILITY.

NOTE: STATIONS NOT REPORTING VARIABLES SUCH AS SKY/WEATHER OR
PRESSURE ARE PROVIDED BY RAWS AND APRS NETWORKS AND ARE NOT UNDER
NATIONAL WEATHER SERVICE QUALITY CONTROL.

...OBSERVATIONS IN AND NEAR THE EASTERN PANHANDLE OF NEBRASKA...

CITY           SKY/WX    TMP DP  RH WIND       PRES   REMARKS
PINE RIDGE     CLOUDY    65  35  33 NE8       29.80S
CHADRON        MOSUNNY   66  29  24 NE9       29.78S
ALLIANCE       CLOUDY    65  27  23 SW12      29.79S
SIDNEY         CLOUDY    63  34  33 S12       29.82F
CRESCENT LAKE    N/A     61  32  34 S8G17       N/A
$$

...OBSERVATIONS IN NORTHERN NEBRASKA AND FAR SOUTHERN SOUTH DAKOTA...

CITY           SKY/WX    TMP DP  RH WIND       PRES   REMARKS
WINNER         FAIR      63  37  38 SE7       29.86F
VALENTINE      CLOUDY    59  35  40 SE8       29.85S
THEDFORD       MOSUNNY   65  37  34 S10       29.85S
AINSWORTH      SUNNY     58  40  50 SE7       29.87S
O`NEILL        SUNNY     60  38  45 SE10      29.90S
ORD            MOSUNNY   58  40  51 VRB7      29.89F
BROKEN BOW     SUNNY     57  42  57 SE10      29.89S
VALENTINE NWR    N/A     59  39  46 SE7G14      N/A
HALSEY           N/A     62  41  46 SE9         N/A
BUTTE            N/A     58  37  45 S5          N/A
CHAMBERS         N/A     58  38  48 E6          N/A
EWING            N/A     59  38  44 SE3         N/A
$$

...OBSERVATIONS IN SOUTHWEST NEBRASKA AND FAR NORTHEAST COLORADO...

CITY           SKY/WX    TMP DP  RH WIND       PRES   REMARKS
WRAY           FAIR      68  30  24 S6G18     29.84
HOLYOKE        FAIR      68  32  26 S10G22    29.83F
IMPERIAL       SUNNY     64  34  32 S7        29.84S
OGALLALA       CLOUDY    65  33  30 SE10      29.83S
NORTH PLATTE   PTSUNNY   64  40  41 S12       29.84F
MCCOOK         SUNNY     64  44  48 SE14G25   29.85S
LEXINGTON      SUNNY     59  40  49 SE9       29.89F
STAPLETON        N/A     63  46  52 CALM        N/A
GOTHENBURG       N/A     59  42  52 SE9         N/A
CALLAWAY         N/A     60  47  61 S12         N/A
$$

...OBSERVATIONS IN CENTRAL LINCOLN COUNTY AREA...

CITY           SKY/WX    TMP DP  RH WIND       PRES   REMARKS
N.P. AIRPORT   PTSUNNY   64  40  41 S12       29.84F
N.P. DOWNTOWN    N/A     64  41  43 S6G13       N/A
N.P. SOUTHEAST   N/A     65  41  41 S8G15       N/A
N.P. HILLCREST   N/A     64  41  43 SE9         N/A
$$

...SOME OBSERVATIONS FROM AROUND THE REGION...

CITY           SKY/WX    TMP DP  RH WIND       PRES   REMARKS
DENVER         CLOUDY    61  30  31 SE15G25   29.77F
LIMON          CLOUDY    58  34  40 S20G26    29.83F
ASPEN          CLOUDY    50  22  33 N8        29.81F
LARAMIE        CLOUDY    49  27  42 S13       29.83F
CASPER         CLOUDY    56  20  24 CALM      29.80S
CHEYENNE       CLOUDY    55  24  30 S8        29.81F
SCOTTSBLUFF    CLOUDY    63  29  27 S9        29.78F
GRAND ISLAND   SUNNY     54  42  64 E7        29.92F
OMAHA          CLOUDY    52  40  63 CALM      29.96S
SIOUX FALLS    MOSUNNY   58  39  49 SE9       29.93R
PIERRE         MOSUNNY   59  31  34 E10       29.88S
RAPID CITY     PTSUNNY   60  35  39 VRB7      29.83S
BISMARCK       SUNNY     64  28  25 SE6       29.89S
KANSAS CITY    CLOUDY    53  47  79 N9        29.93R
HILL CITY      CLOUDY    62  44  51 E10       29.89S
WICHITA        CLOUDY    53  46  77 NE9       29.92F
DODGE CITY     SUNNY     66  37  34 S6        29.88F
OKLAHOMA CITY  MOSUNNY   69  46  43 NE6       29.88F
DALLAS         SUNNY     72  55  55 NE7       29.85F
AMARILLO       SUNNY     70  36  28 S10G25    29.85F
$$




USA.gov is the U.S. government's official web portal to all federal, state and local government web resources and services.